Pawtucket, RI

2:24 PM EDT on October 17, 2019 (GMT -0400)
North Central State

Weather History for KSFZ - September, 2019

Change the Weather History Date:

Friday, September 20, 2019

  Actual Average Record
Temperature  
Mean Temperature 59 °F -  
Max Temperature 77 °F 68 °F 80 °F (2000)
Min Temperature 43 °F 51 °F 35 °F (2014)
Degree Days  
Heating Degree Days 6    
Growing Degree Days 9 (Base 50)    
Moisture  
Dew Point 50 °F    
Average Humidity 74    
Maximum Humidity 97    
Minimum Humidity 45    
Precipitation  
Precipitation 0.00 in - - ()
Sea Level Pressure  
Sea Level Pressure 30.02 in    
Wind  
Wind Speed 4 mph ()    
Max Wind Speed 8 mph    
Max Gust Speed -    
Visibility 10.0 miles    
Events      
Averages and records for this station are not official NWS values.
T = Trace of Precipitation, MM = Missing Value Source: Averaged Metar Reports

Daily Weather History Graph

Daily Weather History Graph

Search for Another Location

Airport or City:

Astronomy

Sep. 20, 2019 Rise Set
Actual Time 6:31 AM EDT 6:47 PM EDT
Civil Twilight 6:03 AM EDT 7:14 PM EDT
Nautical Twilight 5:30 AM EDT 7:47 PM EDT
Astronomical Twilight 4:56 AM EDT 8:21 PM EDT
Moon 10:29 PM EDT (9/20) 12:38 PM EDT (9/20)
Length of Visible Light 13h 11m
Length of Day
12h 16m
Waning Gibbous, 65% of the Moon is Illuminated
Sep 20
Waning Gibbous
Sep 21
Last Quarter
Sep 28
New
Oct 5
First Quarter
Oct 13
Full

Hourly Weather History & Observations

Time (EDT) Temp. Windchill Dew Point Humidity Pressure Visibility Wind Dir Wind Speed Gust Speed Precip Events Conditions
12:56 AM 45.0 °F 43.5 °F 43.0 °F 93% 30.09 in 10.0 mi WSW 3.5 mph - N/A   Clear
1:56 AM 43.0 °F - 42.1 °F 97% 30.08 in 10.0 mi Calm Calm - N/A   Clear
2:56 AM 44.1 °F - 43.0 °F 96% 30.06 in 10.0 mi Calm Calm - N/A   Clear
3:56 AM 43.0 °F 41.3 °F 42.1 °F 97% 30.05 in 10.0 mi West 3.5 mph - N/A   Clear
4:56 AM 46.9 °F - 43.0 °F 86% 30.05 in 10.0 mi West 5.8 mph - N/A   Clear
5:56 AM 43.0 °F 41.3 °F 41.0 °F 93% 30.06 in 10.0 mi West 3.5 mph - N/A   Clear
6:56 AM 44.1 °F - 42.1 °F 93% 30.06 in 10.0 mi Calm Calm - N/A   Clear
7:56 AM 48.9 °F - 45.0 °F 86% 30.06 in 10.0 mi Calm Calm - N/A   Clear
8:56 AM 57.0 °F - 48.9 °F 74% 30.07 in 10.0 mi West 5.8 mph - N/A   Clear
9:56 AM 63.0 °F - 48.9 °F 60% 30.06 in 10.0 mi WNW 5.8 mph - N/A   Clear
10:56 AM 66.9 °F - 51.1 °F 57% 30.04 in 10.0 mi NNW 6.9 mph - N/A   Clear
11:56 AM 71.1 °F - 53.1 °F 53% 30.02 in 10.0 mi NW 8.1 mph - N/A   Clear
12:56 PM 73.0 °F - 54.0 °F 51% 30.00 in 10.0 mi West 8.1 mph - N/A   Clear
1:56 PM 75.0 °F - 55.0 °F 50% 29.98 in 10.0 mi NW 6.9 mph - N/A   Clear
2:56 PM 75.9 °F - 53.1 °F 45% 29.96 in 10.0 mi WNW 8.1 mph - N/A   Clear
3:56 PM 75.9 °F - 54.0 °F 46% 29.96 in 10.0 mi Variable 5.8 mph - N/A   Clear
4:56 PM 75.0 °F - 55.9 °F 51% 29.96 in 10.0 mi WNW 6.9 mph - N/A   Clear
5:56 PM 72.0 °F - 55.9 °F 57% 29.96 in 10.0 mi West 4.6 mph - N/A   Clear
6:56 PM 64.0 °F - 57.0 °F 78% 29.97 in 10.0 mi West 3.5 mph - N/A   Clear
7:56 PM 62.1 °F - 57.0 °F 84% 29.98 in 10.0 mi West 4.6 mph - N/A   Clear
8:56 PM 60.1 °F - 55.9 °F 86% 29.99 in 10.0 mi West 4.6 mph - N/A   Clear
9:56 PM 59.0 °F - 54.0 °F 83% 30.00 in 10.0 mi WSW 3.5 mph - N/A   Clear
10:56 PM 60.1 °F - 52.0 °F 75% 29.99 in 10.0 mi West 4.6 mph - N/A   Clear
11:56 PM 59.0 °F - 52.0 °F 78% 29.98 in 10.0 mi West 6.9 mph - N/A   Clear